Regional Weather Roundup
Issued by NWS

Home | Current Version | Previous Version | Graphics & Text | Print | Product List | Glossary On
Versions: 1 2 3 4 5 6 7 8 9 10 11 12 13 14 15 16 17 18 19 20 21 22 23 24 25 26 27 28 29 30 31 32 33 34 35 36 37 38 39 40 41 42 43 44 45 46 47 48 49 50
000
ASUS45 KTFX 011019
RWRMT
MONTANA HOURLY WEATHER ROUNDUP
NATIONAL WEATHER SERVICE GREAT FALLS MT
319 AM MST SUN FEB 1 2015

NOTE: "FAIR" INDICATES FEW OR NO CLOUDS BELOW 12000 FEET WITH NO
SIGNIFICANT WEATHER AND/OR OBSTRUCTIONS TO VISIBILITY.

* THESE STATIONS ARE NOT UNDER NWS QUALITY CONTROL. THEY DO NOT
   REPORT WEATHER SUCH AS PRECIPITATION OR FOG.

MTZ001>007-043-011100-
WEST OF THE DIVIDE
CITY           SKY/WX    TMP DP  RH WIND       PRES   REMARKS
KALISPELL      CLEAR     19  12  74 N9        30.25S WCI   8
MISSOULA       CLEAR     27  19  72 E9        30.25S WCI  18
BUTTE          FAIR      14  10  84 CALM      30.18S
MULLAN PASS    MOCLDY    21  18  88 SE13      30.10S WCI   8
* ANACONDA     CLEAR     18  12  77 N/A        N/A
* ESSEX        N/A       12   6  77 SE4        N/A
* EUREKA APT   PTCLDY    25  21  85 CALM      30.27R
* HAMILTON APT CLEAR     25  19  78 S3        30.23S
* LIBBY APT    PTCLDY    25  23  92 CALM      30.27S
* LINCOLN      N/A        4   0  83 N1         N/A
* LOOKOUT PASS N/A       20  19  96 N/A        N/A
* POLSON       N/A       21  20  96 N/A        N/A
* RONAN APT    CLEAR     28  28 100 N/A        N/A
* SEELEY LAKE  N/A       18  13  81 NE1        N/A
* THOMP F APT  PTCLDY    13   9  84 NE3        N/A
$$

MTZ008-052>055-011100-
SOUTHWEST MONTANA
CITY           SKY/WX    TMP DP  RH WIND       PRES   REMARKS
BOZEMAN        CLOUDY    18  12  77 CALM      30.26S
DILLON         CLEAR     10   7  88 SW6       30.20S
* W YELLOWSTON PTCLDY    14  11  88 N/A        N/A
* THREE FORKS  PTCLDY    18  18 100 N/A        N/A
* BOULDER HILL N/A        8   4  84 N3         N/A
* MONIDA PASS  N/A       11  10  96 E6         N/A   WCI   1
* RAYNOLDS PAS N/A       12   5  73 W1         N/A
* WHITEHALL    N/A       13   7  77 NW3        N/A
* WISE RIVER   N/A       13   8  80 W2         N/A
$$

MTZ009>010-012-014-046-048-049-054-011100-
EAST SLOPES AND CENTRAL MONTANA
CITY           SKY/WX    TMP DP  RH WIND       PRES   REMARKS
CUT BANK       MOCLDY    -2  -6  83 SE5       30.27F WCI -13
GREAT FALLS    FOG        0  -2  91 SW5       30.30F VSB 1 1/2 WCI -11
HELENA         LGT SNOW  16  10  77 CALM      30.30F
MALMSTROM AFB  CLOUDY    -9 -13  82 S6        30.35F WCI -23
* CONRAD       MOCLDY    -6 -13  71 CALM       N/A
* DEARBORN     N/A        5   1  83 S3         N/A
* EAST GLACIER N/A        5   1  83 NW4        N/A
* MONARCH      N/A        1  -4  79 SE1        N/A
* PENDROY      N/A        5   3  91 SW9        N/A   WCI  -9
* ROGERS PASS  N/A        4   0  83 NW1        N/A
* SWEET GRASS  N/A       -3  -7  83 NW5        N/A   WCI -14
* WHITE SULPH  N/A        9   2  73 S2         N/A
$$

MTZ011-013-016-021-035-040-045-047-050-051-011100-
NORTH CENTRAL MONTANA
CITY           SKY/WX    TMP DP  RH WIND       PRES   REMARKS
HAVRE          CLOUDY    -6  -9  87 CALM      30.43S
LEWISTOWN      CLOUDY     7   1  76 CALM      30.30F
* CHINOOK      CLOUDY   -11 -15  82 CALM      30.46F
* CHESTER      N/A       -9 -15  74 E1         N/A
* DENTON       N/A        1  -2  87 S2         N/A
* GEYSER       N/A        2  -1  87 SW8        N/A   WCI -12
* JUDITH GAP   N/A        5   4  96 N13        N/A   WCI -12
* LOMA         N/A       -5  -9  82 W4         N/A
$$

MTZ017>020-022>027-061-062-011100-
NORTHEAST MONTANA
CITY           SKY/WX    TMP DP  RH WIND       PRES   REMARKS
GLASGOW        MOCLDY    -2  -8  75 E6        30.45F WCI -14
GLENDIVE       MOCLDY    -2  -4  91 N3        30.43S
JORDAN         MOCLDY     3   0  87 CALM      30.42S
SIDNEY         PTCLDY    -2  -9  72 N3        30.52S
WOLF POINT     CLOUDY     1  -6  72 CALM      30.51F
* BEAVER HILL  N/A       -4  -8  83 N6         N/A   WCI -17
* CIRCLE       N/A       -1  -4  87 NE4        N/A
* LINDSAY DVD  N/A       -4  -8  83 W5         N/A   WCI -15
* NAVAJO       N/A       -8 -13  78 W4         N/A
* PLENTYWOOD A MOCLDY    -6  -9  87 CALM      30.46F
* POPLAR APT   MOCLDY    -2  -8  75 N/A       30.50F
* SACO         N/A       -5  -9  82 NE3        N/A
* SCOBEY APT   MOCLDY    -6 -17  58 N/A        N/A
$$

MTZ028>042-056>058-011100-
SOUTHCENTRAL AND SOUTHEAST MONTANA
CITY           SKY/WX    TMP DP  RH WIND       PRES   REMARKS
BAKER          LGT SNOW   1  -6  72 N7        30.36R WCI -12
BILLINGS       LGT SNOW   9   5  84 CALM      30.35R
LIVINGSTON     CLOUDY    18  10  71 CALM      30.24R
MILES CITY     LGT SNOW   1  -2  87 N3        30.42R
* BIG TIMBER A MOCLDY    12   9  88 E6        30.27R WCI   2
* FORSYTH APT  PTCLDY     3   0  87 CALM      30.42S
* LAUREL APT   PTCLDY     7  -2  66 N/A        N/A
* ROUNDUP APT  PTCLDY     7   0  73 N/A        N/A
* ALZADA       N/A        3   0  87 W6         N/A   WCI  -8
* HYSHAM       N/A        2  -1  87 SE1        N/A
* LAME DEER    N/A       -1  -5  83 NW4G10     N/A
* REED POINT   N/A       13   9  84 E6         N/A   WCI   4
$$

REGIONAL REPORTS...DAKOTAS
CITY           SKY/WX    TMP DP  RH WIND       PRES   REMARKS
WILLISTON      PTCLDY    -8 -13  78 N3        30.50S
DICKINSON      LGT SNOW  -4  -9  79 N8        30.36S WCI -19
BEACH          LGT SNOW  -2  -6  83 N9        30.39S WCI -18
CROSBY         CLEAR     -8 -13  78 SE5       30.50S WCI -20
TIOGA          CLEAR     -9 -13  82 CALM      30.48S
WATFORD CITY   CLEAR     -6 N/A N/A N7        30.46S WCI -20
BISMARCK       LGT SNOW  -6 -11  78 N10       30.47S WCI -23
GRAND FORKS    PTCLDY    -9 -18  64 N13       30.57S WCI -30
FARGO          CLOUDY    -4 -11  71 N18       30.47R WCI -26
BUFFALO SD     PTCLDY     0  -6  75 N8        30.24R WCI -14
RAPID CITY     LGT SNOW   7   1  76 N15       30.24R WCI -10
$$

REGIONAL REPORTS...WYOMING/IDAHO/WASHINGTON
CITY           SKY/WX    TMP DP  RH WIND       PRES   REMARKS
GILLETTE       CLOUDY     9   3  76 N15       30.21R WCI  -8
SHERIDAN       CLOUDY    10   3  73 NW14      30.29R WCI  -6
CODY           CLOUDY    12  10  92 N9        30.20R
YELLOWSTONE LA MOCLDY     3  -2  79 CALM      30.12R
SALMON         CLOUDY    23  19  85 CALM      30.26S
MULLAN PASS    MOCLDY    21  18  88 SE13      30.10S WCI   8
SAND POINT     MOCLDY    32  30  92 NE6       30.26F WCI  26
SPOKANE        CLOUDY    28  28 100 NE5       30.23S WCI  22
$$

REGIONAL REPORTS...ALBERTA
CITY           SKY/WX    TMP DP  RH WIND       PRES   REMARKS
CALGARY        FAIR       1  -2  87 SW7       30.18F WCI -12
LETHBRIDGE     CLEAR     -9 -15  74 S3        30.29F
MEDICINE HAT   CLEAR     -8 -11  86 SW7       30.39F WCI -23
EDMONTON       FAIR      -8 -13  78 S6        30.27F WCI -21
WATERTON GATE  N/A       -8 -11  86 CALM       N/A
CARDSTON       N/A       -4  -6  91 SE6        N/A   WCI -17
MILK RIVER     N/A       -4  -8  83 S6         N/A   WCI -17
$$

REGIONAL REPORTS...SASKATCHEWAN
CITY           SKY/WX    TMP DP  RH WIND       PRES   REMARKS
SWIFT CURRENT  CLEAR     -6  -9  87 SW10      30.37S WCI -23
REGINA         FAIR      -9 -13  82 NW2       30.50S
VAL MARIE      N/A      -20 -26  73 CALM       N/A
ASSINIBOIA     N/A      -11 -15  82 SW5        N/A   WCI -23
CORONACH       N/A      -11 -17  74 SW2        N/A

$$



USA.gov is the U.S. government's official web portal to all federal, state and local government web resources and services.